Starlink 35076

operational
NORAD ID: 65457 Int'l Des: 2025-194 Owner: SPXS Country: US Constellation: starlink
LEOCIRCULARRETROGRADE

About Starlink 35076

Description loading...

Live Position

Loading 3D Globe...

Upcoming Passes

Altitude History

Altitude vs Time

uPlot chart will show altitude changes over time

Two-Line Element Set

1 65457U 25194Z 25293.85179768 .00006178 00000-0 43199-3 0 9991
2 65457 97.6022 146.5136 0001945 92.6106 267.5344 15.05647538 8603
Epoch: Oct 20, 2025 • Age: 16 hours

Current Status

Altitude 561.7 km
Velocity 7.59 km/s
Sub-Earth Point 82.44°N, 164.17°W
Launch Date Sep 3, 2025
Age 0.1 years
Type internet

Technical Details

Classification Payload
Mass 575.00 kg
Dry Mass 530.00 kg
Total Mass 575.00 kg
Length 0.30 m
Diameter 4.10 m
Span 29.00 m
Shape Box + pan
Manufacturer SPXS
Bus Type Starlink V2MO
Phase Status In Orbit
Owner/State SPXS/US

Large Constellations

Loading constellations...